ANA2231 RJOB-RKPC

Flight info

Callsign ANA2231
Flight time 1h 3m
Altitude 32000
Route RJOB SID WASYU Y28 DGC A595 TAMNA STAR RKPC
Aircraft A321/M-ANA/L

Departure

Time 2026-04-30 09:17
Airport Okayama Momotaro Airport (RJOB)

Arrival

Time 2026-04-30 10:21
Airport Jeju International Airport (RKPC)
Time Latitude Longitude Altitude Speed Heading
2026-04-30 09:12 34.75974 133.85391 810 ft 0 kts 329°
2026-04-30 09:14 34.75946 133.85411 808 ft 2 kts 329°
2026-04-30 09:14 34.75934 133.85420 807 ft 2 kts 329°
2026-04-30 09:14 34.75914 133.85434 805 ft 2 kts 329°
2026-04-30 09:14 34.75871 133.85480 802 ft 2 kts 287°
2026-04-30 09:15 34.75885 133.85544 801 ft 2 kts 239°
2026-04-30 09:15 34.75895 133.85565 800 ft 0 kts 238°
2026-04-30 09:15 34.75893 133.85561 800 ft 0 kts 239°
2026-04-30 09:15 34.75892 133.85561 800 ft 0 kts 239°
2026-04-30 09:16 34.75885 133.85545 800 ft 3 kts 239°
2026-04-30 09:16 34.75833 133.85439 802 ft 11 kts 239°
2026-04-30 09:16 34.75724 133.85213 800 ft 20 kts 239°
2026-04-30 09:16 34.75559 133.84877 801 ft 25 kts 239°
2026-04-30 09:17 34.75310 133.84572 804 ft 23 kts 126°
2026-04-30 09:17 34.75573 133.85307 791 ft 93 kts 60°
2026-04-30 09:17 34.76190 133.86548 992 ft 157 kts 60°
2026-04-30 09:17 34.76735 133.87694 1773 ft 153 kts 66°
2026-04-30 09:18 34.76633 133.91473 3168 ft 196 kts 135°
2026-04-30 09:18 34.75355 133.92171 3959 ft 218 kts 175°
2026-04-30 09:18 34.73478 133.91185 5021 ft 254 kts 223°
2026-04-30 09:18 34.71080 133.86473 7442 ft 276 kts 233°
2026-04-30 09:19 34.68308 133.80949 9682 ft 301 kts 236°
2026-04-30 09:19 34.67234 133.78787 9935 ft 290 kts 236°
2026-04-30 09:19 34.65289 133.74846 9978 ft 278 kts 236°
2026-04-30 09:19 34.63678 133.71596 10264 ft 286 kts 236°
2026-04-30 09:20 34.62536 133.69305 10532 ft 300 kts 237°
2026-04-30 09:20 34.61435 133.67091 10760 ft 313 kts 237°
2026-04-30 09:20 34.59556 133.63313 11083 ft 331 kts 237°
2026-04-30 09:20 34.57184 133.58556 11509 ft 351 kts 238°
2026-04-30 09:21 34.55924 133.56021 11951 ft 354 kts 238°
2026-04-30 09:21 34.54649 133.53456 12460 ft 355 kts 238°
2026-04-30 09:21 34.53366 133.50882 12929 ft 356 kts 238°
2026-04-30 09:21 34.50845 133.45834 13452 ft 369 kts 239°
2026-04-30 09:22 34.49514 133.43176 13794 ft 372 kts 239°
2026-04-30 09:22 34.48056 133.40111 14635 ft 362 kts 242°
2026-04-30 09:22 34.45982 133.34654 15549 ft 362 kts 248°
2026-04-30 09:22 34.44215 133.28979 16265 ft 366 kts 248°
2026-04-30 09:23 34.42401 133.23169 16916 ft 370 kts 248°
2026-04-30 09:23 34.40760 133.17931 17582 ft 370 kts 248°
2026-04-30 09:23 34.39840 133.15015 17921 ft 371 kts 248°
2026-04-30 09:23 34.38912 133.12093 18206 ft 372 kts 248°
2026-04-30 09:24 34.37987 133.09189 18523 ft 373 kts 248°
2026-04-30 09:24 34.37033 133.06190 18836 ft 374 kts 248°
2026-04-30 09:24 34.33627 132.95543 19798 ft 379 kts 247°
2026-04-30 09:24 34.30174 132.84732 20743 ft 382 kts 247°
2026-04-30 09:25 34.28862 132.80560 21073 ft 384 kts 248°
2026-04-30 09:25 34.27924 132.77571 21320 ft 385 kts 247°
2026-04-30 09:25 34.26961 132.74519 21572 ft 385 kts 247°
2026-04-30 09:25 34.26012 132.71509 21824 ft 386 kts 247°
2026-04-30 09:26 34.25054 132.68478 22055 ft 387 kts 246°
2026-04-30 09:26 34.24086 132.65433 22240 ft 388 kts 246°
2026-04-30 09:26 34.23126 132.62410 22455 ft 389 kts 247°
2026-04-30 09:26 34.22154 132.59351 22719 ft 388 kts 247°
2026-04-30 09:27 34.21197 132.56342 22940 ft 389 kts 246°
2026-04-30 09:27 34.20219 132.53252 23168 ft 390 kts 246°
2026-04-30 09:27 34.18449 132.47656 23559 ft 392 kts 247°
2026-04-30 09:27 34.16558 132.41696 24003 ft 393 kts 246°
2026-04-30 09:28 34.15576 132.38602 24182 ft 394 kts 246°
2026-04-30 09:28 34.14253 132.34450 24505 ft 395 kts 246°
2026-04-30 09:28 34.13216 132.31178 24755 ft 395 kts 246°
2026-04-30 09:28 34.12228 132.28062 24893 ft 399 kts 246°
2026-04-30 09:29 34.11232 132.24942 24977 ft 402 kts 246°
2026-04-30 09:29 34.10004 132.21097 25082 ft 406 kts 246°
2026-04-30 09:29 34.08584 132.16556 25298 ft 408 kts 247°
2026-04-30 09:29 34.06518 132.08148 25963 ft 406 kts 251°
2026-04-30 09:30 34.05792 132.04890 26224 ft 405 kts 251°
2026-04-30 09:30 34.05062 132.01610 26480 ft 404 kts 251°
2026-04-30 09:30 34.03380 131.94075 27085 ft 400 kts 251°
2026-04-30 09:30 34.02659 131.90869 27341 ft 399 kts 251°
2026-04-30 09:31 34.01936 131.87653 27601 ft 398 kts 251°
2026-04-30 09:31 34.01218 131.84445 27873 ft 396 kts 251°
2026-04-30 09:31 34.00502 131.81258 28137 ft 395 kts 251°
2026-04-30 09:31 33.99790 131.78078 28399 ft 393 kts 250°
2026-04-30 09:32 33.99087 131.74942 28656 ft 392 kts 250°
2026-04-30 09:32 33.98372 131.71755 28916 ft 390 kts 250°
2026-04-30 09:32 33.96687 131.64267 29530 ft 386 kts 251°
2026-04-30 09:32 33.94075 131.52773 30452 ft 378 kts 251°
2026-04-30 09:33 33.91602 131.41942 31323 ft 370 kts 251°
2026-04-30 09:33 33.89629 131.33371 31920 ft 366 kts 250°
2026-04-30 09:33 33.88250 131.27416 31934 ft 374 kts 250°
2026-04-30 09:34 33.87202 131.21278 31953 ft 381 kts 258°
2026-04-30 09:34 33.86646 131.14929 31948 ft 382 kts 258°
2026-04-30 09:35 33.86092 131.08591 31940 ft 381 kts 258°
2026-04-30 09:35 33.85536 131.02258 31946 ft 382 kts 258°
2026-04-30 09:36 33.84977 130.95949 31931 ft 381 kts 258°
2026-04-30 09:36 33.84409 130.89632 31933 ft 381 kts 258°
2026-04-30 09:37 33.83837 130.83279 31939 ft 380 kts 258°
2026-04-30 09:37 33.83268 130.77002 31936 ft 380 kts 258°
2026-04-30 09:38 33.82692 130.70694 31924 ft 380 kts 258°
2026-04-30 09:38 33.82115 130.64401 31920 ft 380 kts 258°
2026-04-30 09:39 33.81534 130.58098 31929 ft 380 kts 257°
2026-04-30 09:39 33.80947 130.51791 31929 ft 379 kts 257°
2026-04-30 09:40 33.80360 130.45525 32009 ft 381 kts 257°
2026-04-30 09:40 33.79769 130.39204 31932 ft 379 kts 257°
2026-04-30 09:41 33.79174 130.32924 31931 ft 379 kts 257°
2026-04-30 09:41 33.78586 130.26659 31935 ft 379 kts 257°
2026-04-30 09:42 33.77990 130.20377 31931 ft 378 kts 257°
2026-04-30 09:42 33.77394 130.14148 31934 ft 377 kts 257°
2026-04-30 09:43 33.76789 130.07864 31928 ft 378 kts 257°
2026-04-30 09:43 33.76185 130.01637 31937 ft 377 kts 257°
2026-04-30 09:44 33.75576 129.95384 31935 ft 377 kts 257°
2026-04-30 09:44 33.74966 129.89145 31934 ft 378 kts 256°
2026-04-30 09:45 33.74353 129.82916 31945 ft 377 kts 256°
2026-04-30 09:45 33.73732 129.76659 31944 ft 378 kts 256°
2026-04-30 09:46 33.73109 129.70412 31933 ft 377 kts 256°
2026-04-30 09:46 33.72483 129.64166 31942 ft 377 kts 257°
2026-04-30 09:47 33.71859 129.57935 31950 ft 377 kts 257°
2026-04-30 09:47 33.71227 129.51662 31942 ft 379 kts 256°
2026-04-30 09:48 33.70594 129.45447 31949 ft 378 kts 256°
2026-04-30 09:48 33.69952 129.39175 31941 ft 377 kts 256°
2026-04-30 09:49 33.69316 129.32968 31962 ft 377 kts 256°
2026-04-30 09:49 33.68676 129.26706 31947 ft 378 kts 256°
2026-04-30 09:50 33.68030 129.20464 31958 ft 377 kts 256°
2026-04-30 09:50 33.67384 129.14224 31958 ft 378 kts 256°
2026-04-30 09:51 33.66729 129.07980 31940 ft 378 kts 256°
2026-04-30 09:51 33.66088 129.01753 31970 ft 377 kts 256°
2026-04-30 09:52 33.65428 128.95506 31953 ft 377 kts 255°
2026-04-30 09:52 33.64750 128.89298 31962 ft 376 kts 256°
2026-04-30 09:53 33.64079 128.83075 31957 ft 377 kts 256°
2026-04-30 09:53 33.63411 128.76843 31951 ft 377 kts 255°
2026-04-30 09:54 33.62741 128.70625 31970 ft 378 kts 256°
2026-04-30 09:54 33.62067 128.64406 31953 ft 377 kts 256°
2026-04-30 09:55 33.61390 128.58189 31965 ft 377 kts 255°
2026-04-30 09:55 33.60710 128.51941 31961 ft 377 kts 256°
2026-04-30 09:56 33.60029 128.45732 31970 ft 377 kts 256°
2026-04-30 09:56 33.59346 128.39542 31978 ft 377 kts 256°
2026-04-30 09:57 33.58656 128.33295 31979 ft 376 kts 255°
2026-04-30 09:57 33.57967 128.27084 31970 ft 375 kts 255°
2026-04-30 09:58 33.57281 128.20912 31982 ft 375 kts 255°
2026-04-30 09:58 33.56587 128.14726 31976 ft 376 kts 255°
2026-04-30 09:59 33.55207 128.02486 31827 ft 366 kts 255°
2026-04-30 10:00 33.54520 127.96466 31063 ft 364 kts 256°
2026-04-30 10:00 33.53775 127.89962 29879 ft 376 kts 255°
2026-04-30 10:01 33.52575 127.79607 27867 ft 383 kts 256°
2026-04-30 10:01 33.51742 127.72459 26502 ft 389 kts 256°
2026-04-30 10:01 33.51364 127.69235 25891 ft 391 kts 257°
2026-04-30 10:02 33.50615 127.62775 24681 ft 394 kts 257°
2026-04-30 10:02 33.50234 127.59514 24091 ft 392 kts 257°
2026-04-30 10:02 33.49858 127.56327 23516 ft 391 kts 257°
2026-04-30 10:02 33.48730 127.46787 21790 ft 385 kts 257°
2026-04-30 10:03 33.48117 127.41657 20860 ft 384 kts 258°
2026-04-30 10:03 33.47741 127.38507 20287 ft 382 kts 258°
2026-04-30 10:03 33.47368 127.35356 19705 ft 383 kts 258°
2026-04-30 10:03 33.47002 127.32250 19131 ft 382 kts 257°
2026-04-30 10:04 33.46626 127.29077 18549 ft 381 kts 258°
2026-04-30 10:04 33.46255 127.25943 17971 ft 380 kts 258°
2026-04-30 10:04 33.45890 127.22857 17393 ft 378 kts 258°
2026-04-30 10:04 33.45516 127.19744 16785 ft 376 kts 258°
2026-04-30 10:05 33.45150 127.16697 16194 ft 375 kts 258°
2026-04-30 10:05 33.44777 127.13620 15585 ft 374 kts 259°
2026-04-30 10:05 33.44404 127.10542 14853 ft 372 kts 259°
2026-04-30 10:05 33.44036 127.07514 14131 ft 371 kts 259°
2026-04-30 10:06 33.43671 127.04501 13401 ft 368 kts 259°
2026-04-30 10:06 33.43302 127.01489 12679 ft 366 kts 259°
2026-04-30 10:06 33.42937 126.98504 11963 ft 364 kts 260°
2026-04-30 10:06 33.42578 126.95564 11226 ft 351 kts 260°
2026-04-30 10:07 33.42231 126.92741 10486 ft 336 kts 260°
2026-04-30 10:07 33.41900 126.90043 9748 ft 324 kts 261°
2026-04-30 10:07 33.41875 126.87395 9003 ft 316 kts 278°
2026-04-30 10:07 33.42509 126.84963 8650 ft 300 kts 295°
2026-04-30 10:08 33.43620 126.82933 8514 ft 283 kts 308°
2026-04-30 10:08 33.44857 126.81168 8396 ft 275 kts 309°
2026-04-30 10:08 33.46081 126.79459 8276 ft 264 kts 309°
2026-04-30 10:08 33.47268 126.77791 8157 ft 262 kts 309°
2026-04-30 10:09 33.51269 126.72118 7989 ft 261 kts 309°
2026-04-30 10:09 33.52440 126.70451 7988 ft 261 kts 309°
2026-04-30 10:09 33.55151 126.68124 7953 ft 263 kts 353°
2026-04-30 10:09 33.56969 126.68420 7941 ft 269 kts 21°
2026-04-30 10:10 33.58488 126.69693 7820 ft 271 kts 44°
2026-04-30 10:10 33.60426 126.73523 7566 ft 273 kts 76°
2026-04-30 10:10 33.61265 126.78928 7268 ft 271 kts 78°
2026-04-30 10:10 33.61650 126.81152 7139 ft 270 kts 77°
2026-04-30 10:11 33.61819 126.85555 7001 ft 269 kts 102°
2026-04-30 10:11 33.60517 126.91600 6977 ft 273 kts 103°
2026-04-30 10:11 33.59083 126.99887 6970 ft 251 kts 100°
2026-04-30 10:11 33.59045 127.03900 6742 ft 243 kts 60°
2026-04-30 10:12 33.60159 127.05357 6647 ft 236 kts 28°
2026-04-30 10:12 33.61712 127.05933 6534 ft 231 kts 359°
2026-04-30 10:12 33.63260 127.05538 6525 ft 230 kts 332°
2026-04-30 10:12 33.64464 127.04282 6435 ft 231 kts 301°
2026-04-30 10:13 33.64961 127.01077 6250 ft 235 kts 271°
2026-04-30 10:13 33.64938 126.95016 5864 ft 235 kts 271°
2026-04-30 10:13 33.64938 126.92300 5693 ft 235 kts 272°
2026-04-30 10:13 33.64941 126.88573 5442 ft 233 kts 272°
2026-04-30 10:14 33.64945 126.86589 5304 ft 232 kts 272°
2026-04-30 10:14 33.64945 126.84699 5306 ft 223 kts 274°
2026-04-30 10:14 33.64952 126.80996 5094 ft 222 kts 273°
2026-04-30 10:15 33.64954 126.79141 4922 ft 220 kts 273°
2026-04-30 10:15 33.64881 126.77300 4791 ft 222 kts 266°
2026-04-30 10:15 33.64487 126.75506 4591 ft 226 kts 253°
2026-04-30 10:15 33.63804 126.73811 4321 ft 225 kts 245°
2026-04-30 10:16 33.63027 126.72183 4068 ft 224 kts 243°
2026-04-30 10:16 33.62226 126.70603 3731 ft 222 kts 242°
2026-04-30 10:16 33.61437 126.69075 3507 ft 209 kts 242°
2026-04-30 10:17 33.60026 126.66359 3278 ft 170 kts 243°
2026-04-30 10:17 33.58622 126.63638 2793 ft 158 kts 244°
2026-04-30 10:17 33.58049 126.62521 2576 ft 157 kts 244°
2026-04-30 10:18 33.57475 126.61407 2359 ft 156 kts 243°
2026-04-30 10:18 33.56652 126.59811 2060 ft 155 kts 244°
2026-04-30 10:18 33.55783 126.58123 1738 ft 155 kts 243°
2026-04-30 10:19 33.54655 126.55930 1322 ft 152 kts 243°
2026-04-30 10:19 33.54102 126.54858 1110 ft 148 kts 243°
2026-04-30 10:19 33.53572 126.53826 914 ft 146 kts 242°
2026-04-30 10:19 33.53033 126.52778 721 ft 146 kts 242°
2026-04-30 10:20 33.52509 126.51756 534 ft 145 kts 242°
2026-04-30 10:20 33.51461 126.49713 171 ft 143 kts 240°
2026-04-30 10:20 33.50951 126.48714 127 ft 128 kts 240°
2026-04-30 10:21 33.50597 126.48064 127 ft 53 kts 230°
2026-04-30 10:21 33.50408 126.47932 126 ft 22 kts 160°
2026-04-30 10:21 33.50424 126.48061 126 ft 13 kts 71°
2026-04-30 10:21 33.50473 126.48165 126 ft 14 kts 58°
2026-04-30 10:22 33.50525 126.48266 126 ft 14 kts 58°
2026-04-30 10:22 33.50594 126.48399 126 ft 15 kts 59°
2026-04-30 10:22 33.50818 126.48841 126 ft 16 kts 59°
2026-04-30 10:22 33.50930 126.49114 126 ft 16 kts 117°
2026-04-30 10:23 33.50848 126.49194 126 ft 14 kts 127°
2026-04-30 10:23 33.50780 126.49236 126 ft 10 kts 170°
2026-04-30 10:23 33.50759 126.49241 126 ft 0 kts 168°